AirNav   ProFlight Series 2 Aviation Headset
 
 618 users online  

58MI Mercy Memorial Hospital Heliport
Monroe, Michigan, USA

GOING TO MONROE?


FAA INFORMATION EFFECTIVE 18 JUNE 2020

Location

FAA Identifier: 58MI
Lat/Long: 41-55-26.8100N 083-23-20.1900W
41-55.446833N 083-23.336500W
41.9241139,-83.3889417
(estimated)
Elevation: 615 ft. / 187 m (estimated)
Variation: 06W (2000)
From city: 1 mile SW of MONROE, MI
Time zone: UTC -4 (UTC -5 during Standard Time)
Zip code: 48162

Heliport Operations

Heliport use: Private use, MEDICAL USE.
Activation date: 03/2007
Control tower: no
ARTCC: CLEVELAND CENTER
FSS: LANSING FLIGHT SERVICE STATION
NOTAMs facility: FDC (NOTAM-D service not available)
Attendance: UNATNDD
Wind indicator: yes
Segmented circle: no
Lights: FOR PERIMETER LIGHTS CALL THE EMERGENCY ROOM 734-240-8404 OR RADIO CONTROLLED ON 800 MHZ.

Heliport Communications

WX AWOS-3 at TTF (2.2 nm NW): 119.075 (734-384-0259)
WX AWOS-3 at ONZ (15 nm NE): 119.675 (734-692-9686)
WX AWOS-3 at DUH (16 nm SW): 119.175 (734-856-1563)
WX ASOS at DTW (17 nm N): 133.675 (734-955-5015)
WX ASOS at YIP (20 nm N): PHONE 734-961-6843

Nearby radio navigation aids

VOR radial/distance  VOR name  Freq  Var
CRLr161/8.0CARLETON VOR/DME115.7003W
DXOr189/17.4DETROIT VOR/DME113.4006W
SVMr166/30.5SALEM VORTAC114.3003W

 
NDB name  Hdg/Dist  Freq  Var  ID
GROSSE ILE232/14.941907WRYS .-. -.-- ...
TECUMSEH113/23.123906WTCU - -.-. ..-
ADRIAN090/30.927806WADG .- -.. --.
PORT CLINTON323/33.742307WPCW .--. -.-. .--

Heliport Services

Runway Information

Helipad H1

Dimensions: 40 x 40 ft. / 12 x 12 m
Surface: concrete
Runway edge lights: PERI
PERIMETER LIGHTS MOUNTED ON 6 IN-12 IN CEMENT BASES.
Latitude: 41-55.446833N
Longitude: 083-23.336500W
Elevation: 615.0 ft.
Traffic pattern: leftleft

Heliport Ownership and Management from official FAA records

Ownership: Privately-owned
Owner: MERCY MEMORIAL HOSPITAL CORP.
718 NORTH MACOMB ST
MONROE, MI 48162
Phone 734-240-5201
Manager: RICHARD PAYMENT
718 NORTH MACOMB ST
MONROE, MI 48162
Phone (734) 240-4546

Additional Remarks

FOR CD CTC DETROIT APCH AT 800-499-8181.

Instrument Procedures

There are no published instrument procedures at 58MI.

Some nearby airports with instrument procedures:

KTTF - Custer Airport (2 nm NW)
KONZ - Grosse Ile Municipal Airport (15 nm NE)
KDUH - Toledo Suburban Airport (16 nm SW)
KDTW - Detroit Metropolitan Wayne County Airport (17 nm N)
KYIP - Willow Run Airport (20 nm N)
 
Loc | Ops | Rwys | IFR | FBO | Links
Com | Nav | Svcs | Stats | Notes
Area around 58MI (Mercy Memorial Hospital Heliport)
 
Road maps at: MapQuest Bing Google
 
Aerial photo
No photo
 
Sectional chart

 
Airport distance calculator
Flying to Mercy Memorial Hospital Heliport? Find the distance to fly.

From to 58MI

Sunrise and sunset
Times for 11-Jul-2020
 Local
(UTC-4)
 Zulu
(UTC)
Morning civil twilight05:3709:37
Sunrise06:1010:10
Sunset21:0801:08
Evening civil twilight21:4201:42

Current date and time
Zulu (UTC)  11-Jul-2020 04:22:39
Local (UTC-4)  11-Jul-2020 00:22:39
 
METAR
KTTF 110355Z AUTO 29015G19KT 10SM DZ SCT013 BKN018 OVC026 21/20 A2974 RMK AO2 P0002 T02120196 403110205
KONZ 
15nm NE 
110355Z AUTO 33009G15KT 10SM OVC012 22/21 A2971 RMK AO2 P0001 T02180212
KDUH 
16nm SW 
110355Z AUTO 33010G18KT 7SM RA SCT024 BKN035 OVC065 21/20 A2976 RMK AO2 T02130198
KDTW 
19nm N 
110353Z 32010KT 10SM BKN015 OVC020 22/20 A2974 RMK AO2 SLP065 T02170200
KYIP 
20nm N 
110353Z 33013G19KT 10SM FEW015 FEW024 OVC032 23/20 A2976 RMK AO2 RAE16 SLP068 P0000 T02330200
TAF
KDTW 
19nm N 
102048Z 1021/1124 08006KT P6SM SCT045 BKN100 FM102230 24006KT 5SM SHRA VCTS SCT020 BKN030 OVC050CB FM110200 31011KT P6SM -SHRA BKN025 OVC050 TEMPO 1102/1106 3SM SHRA FM111000 30010KT P6SM SCT050 FM111600 30014KT P6SM SCT050 BKN060
KYIP 
20nm N 
101739Z 1018/1118 VRB05KT P6SM SCT030 BKN050 TEMPO 1018/1020 3SM -TSRA BKN025 OVC040CB FM102000 24006KT 5SM SHRA VCTS SCT020 BKN030 OVC050CB FM110200 31011KT P6SM -SHRA BKN025 OVC050 TEMPO 1102/1106 3SM SHRA FM111000 30010KT P6SM SCT050 FM111600 30014KT P6SM SCT050 BKN060
NOTAMs
Click for the latest NOTAMs
NOTAMs are issued by the DoD/FAA and will open in a separate window not controlled by AirNav.

 

 
 

Would you like to see your business listed on this page?

 If your business provides an interesting product or service to pilots, flight crews, aircraft, or users of the Mercy Memorial Hospital Heliport, you should consider listing it here.  To start the listing process, click on the button below
 
Add a business
 

Other Pages about Mercy Memorial Hospital Heliport

Update a link
 
Copyright © AirNav, LLC. All rights reserved. Privacy Policy  Contact